{"data":{"norad_id":39574,"intl_designator":"2014-009C","name":"GPM-CORE","alt_names":[],"object_type":"PAYLOAD","status":"ACTIVE","operator":null,"country":"JPN","launch_date":"2014-02-27","launch_site_code":"TANSC","launch_vehicle":null,"mission":null,"orbit_class":"UNKNOWN","rcs_meters":8.104,"size_class":null,"mass_kg":null,"dimensions":null,"purposes":["earth_obs"],"wikipedia_slug":null,"has_3d_model":false,"image_url":null,"decayed_at":null,"tle_current":{"epoch":"2026-09-20T04:09:52.324992Z","epoch_age_seconds":46319,"freshness":"FRESH","line1":"1 39574U 14009C   26263.17352228  .00007246  00000+0  15769-3 0  9990","line2":"2 39574  64.9723 349.8374 0011015 263.1262  96.8625 15.45026362712481","mean_motion":15.45026362,"eccentricity":0.0011015,"inclination_deg":64.9723,"raan_deg":349.8374,"arg_perigee_deg":263.1262,"mean_anomaly_deg":96.8625,"bstar":0.00015769,"rev_number":71248,"period_min":93.202293204626,"perigee_km":423.80001819306,"apogee_km":438.80120925609,"semimajor_km":6809.4376137246,"source":"CELESTRAK","updated_at":"2026-09-20T09:00:33.895824Z"}}}